| time (UTC) | temp F | wind direction | speed MPH | gust MPH | rain 1hr in | rain 24hr in | rain mn in | humidity % | barometer mb |
| 20260510211202 | 71 | 333 | 2.0 | 6.0 | 0.00 | 0.00 | 0.00 | 38 | 1016.9 |
| 20260510210659 | 71 | 313 | 1.0 | 3.0 | 0.00 | 0.00 | 0.00 | 38 | 1017.0 |
| 20260510210154 | 71 | 294 | 1.0 | 6.0 | 0.00 | 0.00 | 0.00 | 39 | 1017.1 |
| 20260510205654 | 70 | 328 | 1.0 | 2.0 | 0.00 | 0.00 | 0.00 | 41 | 1017.0 |
| 20260510205149 | 71 | 304 | 3.0 | 7.0 | 0.00 | 0.00 | 0.00 | 39 | 1016.8 |
| 20260510204646 | 72 | 320 | 0.0 | 4.0 | 0.00 | 0.00 | 0.00 | 39 | 1016.7 |
| 20260510204143 | 71 | 176 | 0.0 | 1.0 | 0.00 | 0.00 | 0.00 | 43 | 1016.7 |
| 20260510203640 | 70 | 257 | 0.0 | 3.0 | 0.00 | 0.00 | 0.00 | 44 | 1017.0 |
| 20260510203137 | 70 | 333 | 1.0 | 2.0 | 0.00 | 0.00 | 0.00 | 37 | 1016.9 |
| 20260510202636 | 70 | 295 | 2.0 | 3.0 | 0.00 | 0.00 | 0.00 | 40 | 1017.0 |
| 20260510202132 | 70 | 345 | 1.0 | 2.0 | 0.00 | 0.00 | 0.00 | 37 | 1017.1 |
| 20260510201630 | 70 | 1 | 1.0 | 2.0 | 0.00 | 0.00 | 0.00 | 40 | 1017.2 |
| 20260510201126 | 71 | 2 | 2.0 | 4.0 | 0.00 | 0.00 | 0.00 | 41 | 1017.2 |
| 20260510200622 | 71 | 25 | 2.0 | 4.0 | 0.00 | 0.00 | 0.00 | 42 | 1017.2 |
| 20260510200121 | 72 | 159 | 1.0 | 2.0 | 0.00 | 0.00 | 0.00 | 40 | 1017.3 |
| 20260510195618 | 71 | 243 | 0.0 | 2.0 | 0.00 | 0.00 | 0.00 | 43 | 1017.2 |
| 20260510195114 | 70 | 355 | 4.0 | 8.0 | 0.00 | 0.00 | 0.00 | 43 | 1017.2 |
| 20260510194613 | 70 | 305 | 2.0 | 3.0 | 0.00 | 0.00 | 0.00 | 42 | 1017.2 |
| 20260510194110 | 71 | 301 | 0.0 | 3.0 | 0.00 | 0.00 | 0.00 | 41 | 1017.1 |
| 20260510193610 | 72 | 13 | 3.0 | 4.0 | 0.00 | 0.00 | 0.00 | 39 | 1017.2 |
| 20260510193106 | 71 | 206 | 0.0 | 2.0 | 0.00 | 0.00 | 0.00 | 40 | 1017.2 |
| 20260510192601 | 70 | 311 | 2.0 | 6.0 | 0.00 | 0.00 | 0.00 | 41 | 1017.2 |
| 20260510192057 | 70 | 313 | 4.0 | 4.0 | 0.00 | 0.00 | 0.00 | 43 | 1017.4 |
| 20260510191554 | 70 | 78 | 0.0 | 2.0 | 0.00 | 0.00 | 0.00 | 42 | 1017.1 |
| 20260510191051 | 70 | 331 | 2.0 | 3.0 | 0.00 | 0.00 | 0.00 | 43 | 1017.1 |
| 20260510190548 | 71 | 11 | 0.0 | 2.0 | 0.00 | 0.00 | 0.00 | 41 | 1017.3 |
| 20260510190046 | 69 | 299 | 1.0 | 2.0 | 0.00 | 0.00 | 0.00 | 44 | 1017.1 |
| 20260510185542 | 70 | 286 | 3.0 | 6.0 | 0.00 | 0.00 | 0.00 | 41 | 1017.1 |
| 20260510185040 | 71 | 324 | 1.0 | 2.0 | 0.00 | 0.00 | 0.00 | 42 | 1017.0 |
| 20260510184537 | 70 | 264 | 0.0 | 2.0 | 0.00 | 0.00 | 0.00 | 42 | 1017.1 |
| 20260510184032 | 69 | 24 | 1.0 | 2.0 | 0.00 | 0.00 | 0.00 | 42 | 1017.1 |
| 20260510183528 | 69 | 339 | 3.0 | 7.0 | 0.00 | 0.00 | 0.00 | 40 | 1017.2 |
| 20260510183023 | 70 | 353 | 2.0 | 4.0 | 0.00 | 0.00 | 0.00 | 40 | 1017.1 |
| 20260510182520 | 69 | 37 | 2.0 | 4.0 | 0.00 | 0.00 | 0.00 | 41 | 1017.2 |
| 20260510182020 | 69 | 11 | 3.0 | 4.0 | 0.00 | 0.00 | 0.00 | 39 | 1017.2 |
| 20260510181519 | 69 | 310 | 2.0 | 3.0 | 0.00 | 0.00 | 0.00 | 41 | 1017.3 |
| 20260510181014 | 69 | 15 | 2.0 | 3.0 | 0.00 | 0.00 | 0.00 | 43 | 1017.2 |
| 20260510180512 | 69 | 272 | 1.0 | 3.0 | 0.00 | 0.00 | 0.00 | 42 | 1017.3 |
| 20260510180010 | 69 | 19 | 1.0 | 2.0 | 0.00 | 0.00 | 0.00 | 41 | 1017.3 |
| 20260510175504 | 68 | 1 | 1.0 | 2.0 | 0.00 | 0.00 | 0.00 | 43 | 1017.3 |
| 20260510175001 | 68 | 358 | 2.0 | 3.0 | 0.00 | 0.00 | 0.00 | 44 | 1017.2 |
| 20260510174459 | 68 | 28 | 2.0 | 6.0 | 0.00 | 0.00 | 0.00 | 43 | 1017.2 |
| 20260510173955 | 68 | 303 | 1.0 | 2.0 | 0.00 | 0.00 | 0.00 | 42 | 1017.3 |
| 20260510173451 | 68 | 323 | 6.0 | 7.0 | 0.00 | 0.00 | 0.00 | 41 | 1017.3 |
| 20260510172948 | 68 | 162 | 1.0 | 3.0 | 0.00 | 0.00 | 0.00 | 41 | 1017.4 |
| 20260510172443 | 69 | 332 | 4.0 | 6.0 | 0.00 | 0.00 | 0.00 | 43 | 1017.4 |
| 20260510171940 | 68 | 29 | 0.0 | 1.0 | 0.00 | 0.00 | 0.00 | 42 | 1017.5 |
| 20260510171437 | 68 | 341 | 2.0 | 3.0 | 0.00 | 0.00 | 0.00 | 46 | 1017.1 |
| 20260510170933 | 68 | 304 | 0.0 | 3.0 | 0.00 | 0.00 | 0.00 | 46 | 1017.2 |
| 20260510170430 | 68 | 355 | 2.0 | 3.0 | 0.00 | 0.00 | 0.00 | 46 | 1017.0 |
| 20260510165926 | 67 | 321 | 2.0 | 3.0 | 0.00 | 0.00 | 0.00 | 47 | 1016.9 |
| 20260510165422 | 67 | 36 | 1.0 | 2.0 | 0.00 | 0.00 | 0.00 | 44 | 1017.2 |
| 20260510164919 | 67 | 33 | 2.0 | 4.0 | 0.00 | 0.00 | 0.00 | 45 | 1017.0 |
| 20260510164417 | 67 | 353 | 3.0 | 4.0 | 0.00 | 0.00 | 0.00 | 46 | 1017.2 |
| 20260510163916 | 67 | 267 | 2.0 | 2.0 | 0.00 | 0.00 | 0.00 | 49 | 1017.2 |
| 20260510163414 | 66 | 23 | 2.0 | 4.0 | 0.00 | 0.00 | 0.00 | 44 | 1017.2 |
| 20260510162913 | 66 | 356 | 2.0 | 4.0 | 0.00 | 0.00 | 0.00 | 44 | 1017.3 |
| 20260510162411 | 66 | 304 | 3.0 | 7.0 | 0.00 | 0.00 | 0.00 | 47 | 1017.2 |
| 20260510161907 | 66 | 357 | 0.0 | 3.0 | 0.00 | 0.00 | 0.00 | 48 | 1017.4 |
| 20260510161403 | 66 | 23 | 3.0 | 6.0 | 0.00 | 0.00 | 0.00 | 49 | 1017.2 |
| 20260510160900 | 65 | 323 | 3.0 | 3.0 | 0.00 | 0.00 | 0.00 | 45 | 1017.1 |
| 20260510160357 | 65 | 3 | 2.0 | 4.0 | 0.00 | 0.00 | 0.00 | 47 | 1017.2 |
| 20260510155855 | 66 | 293 | 5.0 | 7.0 | 0.00 | 0.00 | 0.00 | 45 | 1016.9 |
| 20260510155353 | 65 | 30 | 2.0 | 3.0 | 0.00 | 0.00 | 0.00 | 47 | 1017.0 |
| 20260510154849 | 65 | 302 | 4.0 | 6.0 | 0.00 | 0.00 | 0.00 | 46 | 1017.0 |
| 20260510154345 | 65 | 0 | 2.0 | 3.0 | 0.00 | 0.00 | 0.00 | 44 | 1017.2 |
| 20260510153839 | 64 | 328 | 3.0 | 4.0 | 0.00 | 0.00 | 0.00 | 46 | 1017.1 |
| 20260510153335 | 64 | 334 | 0.0 | 2.0 | 0.00 | 0.00 | 0.00 | 48 | 1017.2 |
| 20260510152832 | 64 | 37 | 2.0 | 4.0 | 0.00 | 0.00 | 0.00 | 47 | 1017.1 |
| 20260510152329 | 65 | 38 | 1.0 | 2.0 | 0.00 | 0.00 | 0.00 | 46 | 1017.2 |
| 20260510151826 | 64 | 43 | 1.0 | 3.0 | 0.00 | 0.00 | 0.00 | 47 | 1017.1 |
| 20260510151324 | 63 | 332 | 2.0 | 4.0 | 0.00 | 0.00 | 0.00 | 46 | 1016.9 |
| 20260510150819 | 64 | 347 | 2.0 | 3.0 | 0.00 | 0.00 | 0.00 | 48 | 1017.0 |
| 20260510150315 | 64 | 290 | 2.0 | 3.0 | 0.00 | 0.00 | 0.00 | 49 | 1016.7 |
| 20260510145811 | 64 | 335 | 4.0 | 6.0 | 0.00 | 0.00 | 0.00 | 50 | 1016.7 |
| 20260510145308 | 63 | 36 | 4.0 | 6.0 | 0.00 | 0.00 | 0.00 | 51 | 1016.5 |
| 20260510144805 | 64 | 323 | 3.0 | 4.0 | 0.00 | 0.00 | 0.00 | 49 | 1016.6 |
| 20260510144302 | 63 | 42 | 2.0 | 3.0 | 0.00 | 0.00 | 0.00 | 51 | 1016.5 |
| 20260510143801 | 63 | 16 | 0.0 | 2.0 | 0.00 | 0.00 | 0.00 | 56 | 1016.4 |
| 20260510143257 | 62 | 3 | 2.0 | 3.0 | 0.00 | 0.00 | 0.00 | 54 | 1016.6 |
| 20260510142754 | 63 | 44 | 2.0 | 3.0 | 0.00 | 0.00 | 0.00 | 54 | 1016.4 |
| 20260510142251 | 62 | 13 | 2.0 | 3.0 | 0.00 | 0.00 | 0.00 | 54 | 1016.4 |
| 20260510141748 | 62 | 39 | 0.0 | 6.0 | 0.00 | 0.00 | 0.00 | 55 | 1016.2 |
| 20260510141246 | 62 | 61 | 0.0 | 2.0 | 0.00 | 0.00 | 0.00 | 56 | 1016.3 |
| 20260510140743 | 61 | 340 | 2.0 | 3.0 | 0.00 | 0.00 | 0.00 | 54 | 1016.2 |
| 20260510140238 | 61 | 25 | 2.0 | 3.0 | 0.00 | 0.00 | 0.00 | 57 | 1016.1 |
| 20260510135738 | 61 | 5 | 1.0 | 1.0 | 0.00 | 0.00 | 0.00 | 60 | 1016.0 |
| 20260510135233 | 61 | 356 | 1.0 | 3.0 | 0.00 | 0.00 | 0.00 | 58 | 1015.8 |
| 20260510134732 | 61 | 21 | 2.0 | 4.0 | 0.00 | 0.00 | 0.00 | 60 | 1015.8 |
| 20260510134228 | 61 | 32 | 1.0 | 2.0 | 0.00 | 0.00 | 0.00 | 62 | 1015.8 |
| 20260510133724 | 60 | 17 | 1.0 | 4.0 | 0.00 | 0.00 | 0.00 | 63 | 1015.6 |
| 20260510133220 | 60 | 344 | 0.0 | 1.0 | 0.00 | 0.00 | 0.00 | 63 | 1015.3 |
| 20260510132716 | 60 | 35 | 3.0 | 4.0 | 0.00 | 0.00 | 0.00 | 65 | 1015.4 |
| 20260510132214 | 59 | 357 | 1.0 | 2.0 | 0.00 | 0.00 | 0.00 | 67 | 1015.1 |
| 20260510131711 | 59 | 29 | 1.0 | 6.0 | 0.00 | 0.00 | 0.00 | 67 | 1014.9 |
| 20260510131209 | 59 | 46 | 0.0 | 0.0 | 0.00 | 0.00 | 0.00 | 68 | 1014.9 |
| 20260510130705 | 58 | 9 | 2.0 | 6.0 | 0.00 | 0.00 | 0.00 | 69 | 1014.9 |
| 20260510130202 | 58 | 15 | 2.0 | 3.0 | 0.00 | 0.00 | 0.00 | 72 | 1015.0 |
| 20260510125658 | 58 | 37 | 0.0 | 3.0 | 0.00 | 0.00 | 0.00 | 72 | 1014.8 |
| 20260510125155 | 57 | 20 | 1.0 | 2.0 | 0.00 | 0.00 | 0.00 | 73 | 1014.7 |
| 20260510124652 | 57 | 7 | 2.0 | 2.0 | 0.00 | 0.00 | 0.00 | 76 | 1014.8 |
| 20260510124149 | 57 | 350 | 1.0 | 3.0 | 0.00 | 0.00 | 0.00 | 75 | 1014.6 |
| 20260510123644 | 57 | 15 | 2.0 | 4.0 | 0.00 | 0.00 | 0.00 | 75 | 1014.6 |
| 20260510123140 | 56 | 24 | 1.0 | 2.0 | 0.00 | 0.00 | 0.00 | 77 | 1014.3 |
| 20260510122637 | 56 | 33 | 1.0 | 2.0 | 0.00 | 0.00 | 0.00 | 77 | 1014.4 |
| 20260510122132 | 57 | 358 | 2.0 | 2.0 | 0.00 | 0.00 | 0.00 | 78 | 1014.2 |
| 20260510121629 | 56 | 8 | 2.0 | 2.0 | 0.00 | 0.00 | 0.00 | 80 | 1014.2 |
| 20260510121126 | 56 | 11 | 1.0 | 1.0 | 0.00 | 0.00 | 0.00 | 80 | 1014.3 |
| 20260510120625 | 55 | 9 | 0.0 | 1.0 | 0.00 | 0.00 | 0.00 | 81 | 1014.1 |
| 20260510120119 | 55 | 20 | 0.0 | 1.0 | 0.00 | 0.00 | 0.00 | 82 | 1014.0 |
| 20260510115616 | 55 | 9 | 0.0 | 0.0 | 0.00 | 0.00 | 0.00 | 85 | 1013.8 |
| 20260510115114 | 55 | 8 | 0.0 | 1.0 | 0.00 | 0.00 | 0.00 | 82 | 1013.8 |
| 20260510114609 | 55 | 29 | 0.0 | 1.0 | 0.00 | 0.00 | 0.00 | 83 | 1013.5 |
| 20260510114106 | 55 | 37 | 0.0 | 1.0 | 0.00 | 0.00 | 0.00 | 84 | 1013.6 |
| 20260510113601 | 54 | 61 | 0.0 | 0.0 | 0.00 | 0.00 | 0.00 | 85 | 1013.8 |
| 20260510113059 | 54 | 61 | 0.0 | 0.0 | 0.00 | 0.00 | 0.00 | 89 | 1013.6 |
| 20260510112555 | 54 | 61 | 0.0 | 0.0 | 0.00 | 0.00 | 0.00 | 90 | 1013.6 |
| 20260510112052 | 54 | 148 | 0.0 | 0.0 | 0.00 | 0.00 | 0.00 | 90 | 1013.6 |
| 20260510111548 | 55 | 35 | 0.0 | 0.0 | 0.00 | 0.00 | 0.00 | 88 | 1013.6 |
| 20260510111044 | 56 | 35 | 0.0 | 0.0 | 0.00 | 0.00 | 0.00 | 83 | 1013.6 |
| 20260510110541 | 57 | 25 | 0.0 | 0.0 | 0.00 | 0.00 | 0.00 | 79 | 1013.7 |
| 20260510110037 | 57 | 17 | 2.0 | 2.0 | 0.00 | 0.00 | 0.00 | 77 | 1014.0 |
| 20260510105532 | 57 | 352 | 0.0 | 0.0 | 0.00 | 0.00 | 0.00 | 78 | 1014.0 |
| 20260510105027 | 57 | 344 | 0.0 | 1.0 | 0.00 | 0.00 | 0.00 | 78 | 1013.7 |
| 20260510104524 | 57 | 19 | 0.0 | 1.0 | 0.00 | 0.00 | 0.00 | 79 | 1013.5 |
| 20260510104020 | 57 | 346 | 0.0 | 2.0 | 0.00 | 0.00 | 0.00 | 80 | 1013.4 |
| 20260510103518 | 57 | 316 | 0.0 | 1.0 | 0.00 | 0.00 | 0.00 | 81 | 1013.0 |
| 20260510103014 | 57 | 321 | 2.0 | 3.0 | 0.00 | 0.00 | 0.00 | 82 | 1012.8 |
| 20260510102510 | 57 | 10 | 0.0 | 2.0 | 0.00 | 0.00 | 0.00 | 83 | 1012.8 |
| 20260510102007 | 57 | 7 | 0.0 | 1.0 | 0.00 | 0.00 | 0.00 | 83 | 1012.8 |
| 20260510101504 | 57 | 10 | 0.0 | 1.0 | 0.00 | 0.00 | 0.00 | 84 | 1012.7 |
| 20260510101003 | 57 | 5 | 0.0 | 2.0 | 0.00 | 0.00 | 0.00 | 84 | 1012.5 |
| 20260510100458 | 57 | 17 | 0.0 | 0.0 | 0.00 | 0.00 | 0.00 | 85 | 1012.6 |
| 20260510095955 | 57 | 349 | 1.0 | 1.0 | 0.00 | 0.00 | 0.00 | 86 | 1012.5 |
| 20260510095450 | 57 | 31 | 0.0 | 1.0 | 0.00 | 0.00 | 0.00 | 86 | 1012.4 |
| 20260510094950 | 57 | 346 | 1.0 | 2.0 | 0.00 | 0.00 | 0.00 | 86 | 1012.4 |
| 20260510094445 | 57 | 352 | 1.0 | 2.0 | 0.00 | 0.00 | 0.00 | 87 | 1012.3 |
| 20260510093941 | 57 | 343 | 1.0 | 2.0 | 0.00 | 0.00 | 0.00 | 87 | 1012.4 |
| 20260510093436 | 57 | 16 | 0.0 | 1.0 | 0.00 | 0.00 | 0.00 | 86 | 1012.3 |
| 20260510092933 | 57 | 24 | 0.0 | 2.0 | 0.00 | 0.00 | 0.00 | 86 | 1012.3 |
| 20260510092431 | 57 | 17 | 1.0 | 2.0 | 0.00 | 0.00 | 0.00 | 87 | 1012.3 |
| 20260510091930 | 56 | 183 | 0.0 | 0.0 | 0.00 | 0.00 | 0.00 | 88 | 1012.2 |
| 20260510091428 | 56 | 183 | 0.0 | 0.0 | 0.00 | 0.00 | 0.00 | 87 | 1011.9 |
| 20260510090924 | 56 | 183 | 0.0 | 0.0 | 0.00 | 0.00 | 0.00 | 87 | 1011.8 |
| 20260510090421 | 56 | 183 | 0.0 | 0.0 | 0.00 | 0.00 | 0.00 | 87 | 1011.9 |
| 20260510085916 | 57 | 183 | 0.0 | 0.0 | 0.00 | 0.00 | 0.00 | 88 | 1011.8 |
| 20260510085412 | 57 | 183 | 0.0 | 0.0 | 0.00 | 0.00 | 0.00 | 86 | 1011.9 |
| 20260510084907 | 57 | 183 | 0.0 | 0.0 | 0.00 | 0.00 | 0.00 | 85 | 1011.9 |
| 20260510084405 | 57 | 183 | 0.0 | 0.0 | 0.00 | 0.00 | 0.00 | 85 | 1011.6 |
| 20260510083901 | 58 | 186 | 0.0 | 0.0 | 0.00 | 0.00 | 0.00 | 84 | 1011.7 |
| 20260510083358 | 59 | 183 | 0.0 | 0.0 | 0.00 | 0.00 | 0.00 | 81 | 1011.4 |
| 20260510082853 | 59 | 183 | 0.0 | 0.0 | 0.00 | 0.00 | 0.00 | 80 | 1011.6 |
| 20260510082351 | 59 | 183 | 0.0 | 0.0 | 0.00 | 0.00 | 0.00 | 80 | 1011.6 |
| 20260510081850 | 59 | 183 | 0.0 | 0.0 | 0.00 | 0.00 | 0.00 | 81 | 1011.3 |
| 20260510081346 | 58 | 183 | 1.0 | 1.0 | 0.00 | 0.00 | 0.00 | 82 | 1011.2 |
| 20260510080843 | 57 | 182 | 1.0 | 1.0 | 0.00 | 0.00 | 0.00 | 83 | 1011.1 |
| 20260510080336 | 57 | 179 | 1.0 | 2.0 | 0.00 | 0.00 | 0.00 | 84 | 1011.1 |
| 20260510075834 | 57 | 176 | 0.0 | 1.0 | 0.00 | 0.00 | 0.00 | 85 | 1011.0 |
| 20260510075332 | 57 | 176 | 0.0 | 0.0 | 0.00 | 0.00 | 0.00 | 84 | 1010.9 |
| 20260510074828 | 58 | 11 | 0.0 | 0.0 | 0.00 | 0.00 | 0.00 | 83 | 1010.8 |
| 20260510074325 | 59 | 165 | 0.0 | 1.0 | 0.00 | 0.00 | 0.00 | 82 | 1010.7 |
| 20260510073821 | 59 | 26 | 0.0 | 3.0 | 0.00 | 0.00 | 0.00 | 81 | 1010.9 |
| 20260510073317 | 59 | 177 | 2.0 | 3.0 | 0.00 | 0.00 | 0.00 | 80 | 1010.5 |
| 20260510072813 | 60 | 25 | 1.0 | 2.0 | 0.00 | 0.00 | 0.00 | 79 | 1010.8 |
| 20260510072310 | 60 | 167 | 0.0 | 2.0 | 0.00 | 0.00 | 0.00 | 76 | 1010.7 |
| 20260510071807 | 61 | 4 | 3.0 | 4.0 | 0.00 | 0.00 | 0.00 | 74 | 1010.7 |
| 20260510071303 | 62 | 279 | 0.0 | 1.0 | 0.00 | 0.00 | 0.00 | 72 | 1010.4 |
| 20260510070803 | 62 | 185 | 1.0 | 1.0 | 0.00 | 0.00 | 0.00 | 72 | 1010.4 |
| 20260510070259 | 62 | 190 | 0.0 | 1.0 | 0.00 | 0.00 | 0.00 | 72 | 1010.6 |
| 20260510065758 | 62 | 187 | 0.0 | 2.0 | 0.00 | 0.00 | 0.00 | 71 | 1010.6 |
| 20260510065255 | 63 | 183 | 0.0 | 1.0 | 0.00 | 0.00 | 0.00 | 71 | 1010.5 |
| 20260510064752 | 63 | 184 | 0.0 | 1.0 | 0.00 | 0.00 | 0.00 | 70 | 1010.3 |
| 20260510064250 | 63 | 175 | 1.0 | 2.0 | 0.00 | 0.00 | 0.00 | 70 | 1010.4 |
| 20260510063745 | 63 | 191 | 0.0 | 1.0 | 0.00 | 0.00 | 0.00 | 70 | 1010.5 |
| 20260510063242 | 63 | 191 | 0.0 | 0.0 | 0.00 | 0.00 | 0.00 | 70 | 1010.5 |
| 20260510062739 | 64 | 185 | 0.0 | 1.0 | 0.00 | 0.00 | 0.00 | 69 | 1010.5 |
| 20260510062235 | 64 | 186 | 0.0 | 1.0 | 0.00 | 0.00 | 0.00 | 69 | 1010.6 |
| 20260510061730 | 64 | 173 | 0.0 | 1.0 | 0.00 | 0.00 | 0.00 | 68 | 1010.4 |
| 20260510061228 | 64 | 280 | 0.0 | 1.0 | 0.00 | 0.00 | 0.00 | 68 | 1010.9 |
| 20260510060724 | 64 | 228 | 0.0 | 1.0 | 0.00 | 0.00 | 0.00 | 68 | 1010.8 |
| 20260510060220 | 64 | 185 | 1.0 | 2.0 | 0.00 | 0.00 | 0.00 | 67 | 1010.7 |
| 20260510055717 | 64 | 230 | 1.0 | 1.0 | 0.00 | 0.00 | 0.00 | 67 | 1010.9 |
| 20260510055215 | 64 | 212 | 0.0 | 2.0 | 0.00 | 0.00 | 0.00 | 67 | 1010.9 |
| 20260510054710 | 64 | 263 | 2.0 | 2.0 | 0.00 | 0.00 | 0.00 | 67 | 1010.7 |
| 20260510054206 | 64 | 203 | 0.0 | 1.0 | 0.00 | 0.00 | 0.00 | 67 | 1010.7 |
| 20260510053706 | 64 | 178 | 0.0 | 1.0 | 0.00 | 0.00 | 0.00 | 66 | 1010.8 |
| 20260510053202 | 64 | 204 | 0.0 | 1.0 | 0.00 | 0.00 | 0.00 | 66 | 1010.7 |
| 20260510052658 | 64 | 157 | 0.0 | 1.0 | 0.00 | 0.00 | 0.00 | 66 | 1010.7 |
| 20260510052154 | 64 | 142 | 1.0 | 1.0 | 0.00 | 0.00 | 0.00 | 66 | 1010.5 |
| 20260510051650 | 64 | 200 | 0.0 | 2.0 | 0.00 | 0.00 | 0.00 | 66 | 1010.7 |
| 20260510051147 | 64 | 186 | 2.0 | 2.0 | 0.00 | 0.00 | 0.00 | 66 | 1010.6 |
| 20260510050644 | 64 | 170 | 0.0 | 0.0 | 0.00 | 0.00 | 0.00 | 67 | 1010.6 |
| 20260510050141 | 63 | 159 | 0.0 | 1.0 | 0.00 | 0.00 | 0.00 | 67 | 1010.7 |
| 20260510045638 | 64 | 197 | 1.0 | 2.0 | 0.00 | 0.00 | 0.00 | 67 | 1010.6 |
| 20260510045134 | 64 | 175 | 0.0 | 1.0 | 0.00 | 0.00 | 0.00 | 66 | 1010.8 |
| 20260510044630 | 64 | 191 | 1.0 | 2.0 | 0.00 | 0.00 | 0.00 | 66 | 1010.8 |
| 20260510044128 | 63 | 193 | 0.0 | 1.0 | 0.00 | 0.00 | 0.00 | 66 | 1010.8 |
| 20260510043624 | 63 | 194 | 0.0 | 1.0 | 0.00 | 0.00 | 0.00 | 66 | 1010.8 |
| 20260510043121 | 64 | 184 | 0.0 | 1.0 | 0.00 | 0.00 | 0.00 | 66 | 1010.8 |
| 20260510042618 | 63 | 200 | 0.0 | 0.0 | 0.00 | 0.00 | 0.00 | 66 | 1010.6 |
| 20260510042114 | 63 | 255 | 0.0 | 0.0 | 0.00 | 0.00 | 0.00 | 67 | 1010.7 |
| 20260510041611 | 63 | 174 | 0.0 | 0.0 | 0.00 | 0.00 | 0.00 | 67 | 1010.7 |
| 20260510041108 | 63 | 174 | 0.0 | 0.0 | 0.00 | 0.00 | 0.00 | 66 | 1010.8 |
| 20260510040606 | 63 | 134 | 0.0 | 0.0 | 0.00 | 0.00 | 0.00 | 67 | 1010.8 |
| 20260510035558 | 63 | 268 | 0.0 | 0.0 | 0.00 | 0.23 | 0.23 | 67 | 1010.6 |
| 20260510035058 | 63 | 192 | 0.0 | 0.0 | 0.00 | 0.23 | 0.23 | 67 | 1010.5 |
| 20260510034556 | 63 | 192 | 0.0 | 0.0 | 0.00 | 0.23 | 0.23 | 66 | 1010.6 |
| 20260510034053 | 64 | 192 | 0.0 | 0.0 | 0.00 | 0.23 | 0.23 | 65 | 1010.6 |
| 20260510033549 | 64 | 192 | 0.0 | 0.0 | 0.00 | 0.23 | 0.23 | 65 | 1010.7 |
| 20260510033047 | 64 | 192 | 0.0 | 0.0 | 0.00 | 0.23 | 0.23 | 65 | 1010.6 |
| 20260510032543 | 64 | 224 | 0.0 | 0.0 | 0.00 | 0.23 | 0.23 | 65 | 1010.5 |
| 20260510032039 | 63 | 224 | 0.0 | 0.0 | 0.00 | 0.23 | 0.23 | 65 | 1010.6 |
| 20260510031539 | 63 | 224 | 0.0 | 0.0 | 0.00 | 0.23 | 0.23 | 65 | 1010.5 |
| 20260510031035 | 63 | 224 | 0.0 | 0.0 | 0.00 | 0.23 | 0.23 | 66 | 1010.5 |
| 20260510030531 | 63 | 224 | 0.0 | 0.0 | 0.00 | 0.23 | 0.23 | 66 | 1010.6 |
| 20260510030028 | 62 | 224 | 0.0 | 0.0 | 0.00 | 0.23 | 0.23 | 68 | 1010.5 |
| 20260510025525 | 63 | 224 | 0.0 | 0.0 | 0.00 | 0.23 | 0.23 | 67 | 1010.3 |
| 20260510025023 | 63 | 224 | 0.0 | 0.0 | 0.00 | 0.23 | 0.23 | 67 | 1010.3 |
| 20260510024520 | 64 | 224 | 0.0 | 0.0 | 0.00 | 0.23 | 0.23 | 66 | 1010.3 |
| 20260510024015 | 64 | 225 | 0.0 | 0.0 | 0.00 | 0.23 | 0.23 | 64 | 1010.3 |
| 20260510023511 | 65 | 225 | 0.0 | 0.0 | 0.00 | 0.23 | 0.23 | 63 | 1010.1 |
| 20260510023009 | 65 | 225 | 0.0 | 0.0 | 0.00 | 0.23 | 0.23 | 62 | 1010.3 |
| 20260510022508 | 65 | 221 | 0.0 | 0.0 | 0.00 | 0.23 | 0.23 | 61 | 1010.4 |
| 20260510022008 | 65 | 182 | 0.0 | 0.0 | 0.00 | 0.23 | 0.23 | 61 | 1010.0 |
| 20260510021505 | 65 | 199 | 0.0 | 1.0 | 0.00 | 0.23 | 0.23 | 61 | 1010.0 |
| 20260510021002 | 66 | 199 | 0.0 | 0.0 | 0.00 | 0.23 | 0.23 | 60 | 1010.0 |
| 20260510020456 | 66 | 199 | 0.0 | 0.0 | 0.00 | 0.23 | 0.23 | 59 | 1009.9 |
| 20260510015952 | 67 | 199 | 0.0 | 0.0 | 0.00 | 0.23 | 0.23 | 58 | 1009.9 |
| 20260510015448 | 67 | 199 | 0.0 | 0.0 | 0.00 | 0.23 | 0.23 | 57 | 1009.7 |
| 20260510014943 | 67 | 222 | 0.0 | 1.0 | 0.00 | 0.23 | 0.23 | 57 | 1009.7 |
| 20260510014441 | 67 | 190 | 0.0 | 1.0 | 0.00 | 0.23 | 0.23 | 57 | 1009.6 |
| 20260510013938 | 67 | 191 | 0.0 | 1.0 | 0.00 | 0.23 | 0.23 | 57 | 1009.5 |
| 20260510013432 | 67 | 187 | 0.0 | 1.0 | 0.00 | 0.23 | 0.23 | 57 | 1009.3 |
| 20260510012928 | 68 | 187 | 0.0 | 1.0 | 0.00 | 0.23 | 0.23 | 57 | 1009.2 |
| 20260510012423 | 68 | 162 | 0.0 | 1.0 | 0.00 | 0.23 | 0.23 | 56 | 1009.3 |
| 20260510011918 | 68 | 271 | 0.0 | 0.0 | 0.00 | 0.23 | 0.23 | 58 | 1009.2 |
| 20260510011413 | 68 | 208 | 0.0 | 0.0 | 0.00 | 0.23 | 0.23 | 57 | 1009.3 |
| 20260510010910 | 68 | 197 | 0.0 | 0.0 | 0.00 | 0.23 | 0.23 | 57 | 1009.2 |
| 20260510010408 | 68 | 197 | 0.0 | 0.0 | 0.00 | 0.23 | 0.23 | 56 | 1009.1 |
| 20260510005904 | 69 | 197 | 0.0 | 0.0 | 0.00 | 0.23 | 0.23 | 56 | 1009.0 |
| 20260510005400 | 69 | 194 | 0.0 | 1.0 | 0.00 | 0.23 | 0.23 | 55 | 1008.9 |
| 20260510004858 | 69 | 201 | 0.0 | 1.0 | 0.00 | 0.23 | 0.23 | 55 | 1008.9 |
| 20260510004355 | 70 | 319 | 0.0 | 0.0 | 0.00 | 0.23 | 0.23 | 53 | 1008.8 |
| 20260510003853 | 70 | 256 | 0.0 | 0.0 | 0.00 | 0.23 | 0.23 | 53 | 1008.6 |
| 20260510003349 | 70 | 223 | 0.0 | 1.0 | 0.00 | 0.23 | 0.23 | 53 | 1008.8 |
| 20260510002848 | 71 | 219 | 0.0 | 1.0 | 0.00 | 0.23 | 0.23 | 52 | 1008.7 |
| 20260510002346 | 71 | 180 | 1.0 | 1.0 | 0.00 | 0.23 | 0.23 | 51 | 1008.4 |
| 20260510001842 | 71 | 184 | 0.0 | 2.0 | 0.00 | 0.23 | 0.23 | 51 | 1008.4 |
| 20260510001340 | 72 | 284 | 0.0 | 1.0 | 0.00 | 0.23 | 0.23 | 51 | 1008.3 |
| 20260510000836 | 72 | 216 | 0.0 | 0.0 | 0.00 | 0.23 | 0.23 | 50 | 1008.4 |
| 20260510000334 | 72 | 151 | 1.0 | 2.0 | 0.00 | 0.23 | 0.23 | 50 | 1008.1 |
| 20260509235830 | 72 | 155 | 0.0 | 1.0 | 0.00 | 0.23 | 0.23 | 49 | 1008.3 |
| 20260509235327 | 73 | 155 | 2.0 | 4.0 | 0.00 | 0.23 | 0.23 | 48 | 1008.2 |
| 20260509234823 | 73 | 218 | 0.0 | 1.0 | 0.00 | 0.23 | 0.23 | 49 | 1008.2 |
| 20260509234319 | 73 | 240 | 0.0 | 0.0 | 0.00 | 0.23 | 0.23 | 48 | 1008.1 |
| 20260509233818 | 73 | 236 | 2.0 | 3.0 | 0.00 | 0.23 | 0.23 | 47 | 1007.9 |
| 20260509233315 | 73 | 204 | 2.0 | 4.0 | 0.00 | 0.23 | 0.23 | 47 | 1008.1 |
| 20260509232811 | 73 | 285 | 1.0 | 4.0 | 0.00 | 0.23 | 0.23 | 48 | 1007.9 |
| 20260509232309 | 73 | 189 | 2.0 | 4.0 | 0.00 | 0.23 | 0.23 | 47 | 1007.8 |
| 20260509231805 | 74 | 187 | 2.0 | 4.0 | 0.00 | 0.23 | 0.23 | 47 | 1008.0 |
| 20260509231302 | 74 | 208 | 0.0 | 1.0 | 0.00 | 0.23 | 0.23 | 47 | 1007.7 |
| 20260509230759 | 74 | 177 | 4.0 | 6.0 | 0.00 | 0.23 | 0.23 | 46 | 1007.8 |
| 20260509230256 | 74 | 148 | 1.0 | 2.0 | 0.00 | 0.23 | 0.23 | 46 | 1007.8 |
| 20260509225751 | 74 | 192 | 2.0 | 4.0 | 0.00 | 0.23 | 0.23 | 46 | 1007.8 |
| 20260509225248 | 74 | 211 | 1.0 | 3.0 | 0.00 | 0.23 | 0.23 | 48 | 1007.6 |
| 20260509224743 | 74 | 195 | 1.0 | 6.0 | 0.00 | 0.23 | 0.23 | 46 | 1007.8 |
| 20260509224241 | 74 | 181 | 3.0 | 6.0 | 0.00 | 0.23 | 0.23 | 46 | 1007.8 |
| 20260509223737 | 74 | 197 | 2.0 | 4.0 | 0.00 | 0.23 | 0.23 | 47 | 1007.7 |
| 20260509223235 | 74 | 202 | 2.0 | 2.0 | 0.00 | 0.23 | 0.23 | 48 | 1007.7 |
| 20260509222731 | 74 | 252 | 2.0 | 6.0 | 0.00 | 0.23 | 0.23 | 48 | 1007.7 |
| 20260509222226 | 74 | 195 | 2.0 | 6.0 | 0.00 | 0.23 | 0.23 | 48 | 1007.7 |
| 20260509221722 | 74 | 220 | 5.0 | 7.0 | 0.00 | 0.23 | 0.23 | 49 | 1007.6 |
| 20260509221219 | 75 | 178 | 1.0 | 7.0 | 0.00 | 0.23 | 0.23 | 49 | 1007.6 |
| 20260509220715 | 75 | 177 | 1.0 | 2.0 | 0.00 | 0.23 | 0.23 | 47 | 1007.9 |
| 20260509220212 | 75 | 300 | 0.0 | 2.0 | 0.00 | 0.23 | 0.23 | 48 | 1007.7 |
| 20260509215707 | 75 | 267 | 1.0 | 11.0 | 0.00 | 0.23 | 0.23 | 47 | 1007.7 |
| 20260509215204 | 75 | 163 | 2.0 | 4.0 | 0.00 | 0.23 | 0.23 | 47 | 1007.9 |
| 20260509214701 | 74 | 168 | 2.0 | 3.0 | 0.00 | 0.23 | 0.23 | 47 | 1007.7 |
| 20260509214158 | 74 | 157 | 6.0 | 8.0 | 0.00 | 0.23 | 0.23 | 48 | 1007.8 |
| 20260509213655 | 75 | 307 | 4.0 | 10.0 | 0.00 | 0.23 | 0.23 | 48 | 1007.9 |
| 20260509213150 | 74 | 191 | 6.0 | 10.0 | 0.00 | 0.23 | 0.23 | 49 | 1007.7 |
| 20260509212648 | 74 | 223 | 3.0 | 4.0 | 0.00 | 0.23 | 0.23 | 46 | 1007.9 |
| 20260509212145 | 75 | 206 | 1.0 | 8.0 | 0.00 | 0.23 | 0.23 | 46 | 1007.9 |
| 20260509211641 | 75 | 202 | 6.0 | 9.0 | 0.00 | 0.23 | 0.23 | 47 | 1007.9 |